AirNav   Air Wisconsin pilot careers
 
 880 users online  

8A4 Indianapolis Downtown Heliport
Indianapolis, Indiana, USA

GOING TO INDIANAPOLIS?


FAA INFORMATION EFFECTIVE 06 DECEMBER 2018

Location

FAA Identifier: 8A4
Lat/Long: 39-45-57.1550N / 086-08-55.9500W
39-45.952583N / 086-08.932500W
39.7658764 / -86.1488750
(estimated)
Elevation: 732 ft. / 223.1 m (surveyed)
Variation: 03W (2000)
Time zone: UTC -5 (UTC -4 during Daylight Saving Time)
Zip code: 46204

Heliport Operations

Heliport use: Open to the public
Activation date: 12/1978
Control tower: no
ARTCC: INDIANAPOLIS CENTER
FSS: TERRE HAUTE FLIGHT SERVICE STATION
NOTAMs facility: HUF (NOTAM-D service available)
Attendance: MON-FRI 0800-1630, ALL SAT-SUN ON REQ
FOR ATTENDANT & INFO CALL 317-955-1271. FOR WEEK-END ASSISTANCE 317-487-5089.
Wind indicator: lighted
Segmented circle: no
Lights: ACTVT ODALS; PLASI; HIGH INTST PAD LGTS - CTAF.
Beacon: white-green-yellow (heliport)
Operates sunset to sunrise.

Heliport Communications

CTAF/UNICOM: 123.05
WX AWOS-3: 118.250 (317-955-3160)
INDIANAPOLIS APPROACH: 125.275
INDIANAPOLIS DEPARTURE: 125.275
WX ASOS at IND (7 nm SW): PHONE 317-241-0348
WX ASOS at EYE (8 nm NW): 121.575 (317-329-1754)
WX AWOS-3P at HFY (9 nm S): 118.525 (317-882-5862)
WX AWOS-3 at UMP (11 nm NE): 119.375 (317-842-3911)
WX AWOS-3 at MQJ (12 nm E): 124.175 (317-335-3037)
WX AWOS-3 at 2R2 (15 nm W): 118.025 (317-718-4872)
WX AWOS-3PT at TYQ (17 nm N): 120.725 (317-769-3154)
WX ASOS at GEZ (19 nm SE): 121.55 (317-398-0246)

Nearby radio navigation aids

VOR radial/distance  VOR name  Freq  Var
VHPr105/10.5BRICKYARD VORTAC116.3001E
SHBr297/17.0SHELBYVILLE VOR/DME112.0001E

 
NDB name  Hdg/Dist  Freq  Var  ID
METROPOLITAN207/11.333803WUMP ..- -- .--.
CRAWFORDSVILLE114/37.638804WCFJ -.-. ..-. .---
NEW CASTLE266/38.938506WUWL ..- .-- .-..

Heliport Services

Fuel available: A1+
SELF SERVE
Parking: tiedowns
Airframe service: MINOR
MINOR REPAIRS AVBL ON REQ. CALL 317-487-5089.
Powerplant service: MINOR

Runway Information

Helipad H1

Dimensions: 60 x 60 ft. / 18 x 18 m
Surface: concrete, in good condition
Latitude: 39-45.952583N
Longitude: 086-08.932500W
Elevation: 732.0 ft.
Traffic pattern: leftleft
Markings: basic, in good condition
Visual slope indicator: non-standard VASI system
NSTD PLASI - PULSATING APCH SLOPE INDICATOR - ON EAST APCH.
Approach lights: ODALS WESTBND INGRSS
Runway end identifier lights: no

Heliport Ownership and Management from official FAA records

Ownership: Publicly-owned
Owner: INDIANAPOLIS ARPT AUTH
7800 COL. H. WEIR. COOK MEMORIAL DR
INDIANAPOLIS, IN 46241
Phone 317-487-5024
Manager: MIKE MEDVESCEK
7800 COL. H. WEIR. COOK MEMORIAL DR
INDIANAPOLIS, IN 46241
Phone 317-955-1271

Heliport Operational Statistics

Aircraft based on the field: 4
Helicopters: 4
    
Aircraft operations: avg 41/week *
98% transient general aviation
1% military
1% air taxi
* for 12-month period ending 31 December 2016

Additional Remarks

OPNS SUB TO RULES & REGS FOR USE OF FACS & ARPTS PROMULGATED BY INDPLS ARPT AUTH.
INGRESS/EGRESS COORDN WITH INDPLS APCH CTL IS ENCOURAGED. - 125.275.
ARPT HAS NOISE ABATEMENT PROCEDURES CONTACT AMGR AT 317-955-1271.
ALL TFC REMAIN SOUTH OF HELIPORT; UTILIZE RR TRACKS & INTERSTATE HIGHWAYS FOR INGRESS/EGRESS. APCH & DEP ON EASTERLY OR WESTERLY HDGS.
FOR CD CTC IND APCH AT 317-227-5743.
A52-H1 BLDG AREA TO NE IS LGTD.

Instrument Procedures

NOTE: All procedures below are presented as PDF files. If you need a reader for these files, you should download the free Adobe Reader.

NOT FOR NAVIGATION. Please procure official charts for flight.
FAA instrument procedures published for use from 6 December 2018 at 0901Z to 3 January 2019 at 0900Z.

 
IAPs - Instrument Approach Procedures
COPTER RNAV (GPS) 291   download (206KB)
COPTER VOR/DME 287   download (211KB)

Other nearby airports with instrument procedures:

KIND - Indianapolis International Airport (7 nm SW)
KEYE - Eagle Creek Airpark (8 nm NW)
KHFY - Indy South Greenwood Airport (9 nm S)
KUMP - Indianapolis Metropolitan Airport (11 nm NE)
KMQJ - Indianapolis Regional Airport (12 nm E)
2R2 - Hendricks County Airport-Gordon Graham Field (15 nm W)
KTYQ - Indianapolis Executive Airport (17 nm N)
KGEZ - Shelbyville Municipal Airport (19 nm SE)
 
Loc | Ops | Rwys | IFR | FBO | Links
Com | Nav | Svcs | Stats | Notes


 
Area around 8A4 (Indianapolis Downtown Heliport)
 
Road maps at: MapQuest Bing Google
 
Aerial photo
WARNING: Photo may not be current or correct
Aerial photo of 8A4 (Indianapolis Downtown Heliport)
Photo by Ellie Patton
Photo taken 06-Mar-2010

Do you have a better or more recent aerial photo of Indianapolis Downtown Heliport that you would like to share? If so, please send us your photo.

 
Sectional chart

 
Airport distance calculator
Flying to Indianapolis Downtown Heliport? Find the distance to fly.

From to 8A4

Sunrise and sunset
Times for 16-Dec-2018
 Local
(UTC-5)
 Zulu
(UTC)
Morning civil twilight07:3012:30
Sunrise08:0013:00
Sunset17:2022:20
Evening civil twilight17:5122:51

Current date and time
Zulu (UTC)  16-Dec-2018 14:37:32
Local (UTC-5)  16-Dec-2018 09:37:32
 
METAR
KIND 
7nm SW 
161354Z 31004KT 9SM OVC008 03/01 A3011 RMK AO2 SLP201 T00280011 $
KEYE 
8nm NW 
161403Z AUTO 33005KT 10SM SCT008 BKN033 02/00 A3010 RMK AO2 T00220000
KHFY 
9nm S 
161415Z AUTO 31005KT 3SM BKN006 BKN014 OVC025 03/02 A3011 RMK AO2 T00270021
KMQJ 
13nm E 
161416Z AUTO 31007KT 5SM BKN004 BKN008 BKN033 03/03 A3011 RMK AO1
KTYQ 
17nm N 
161415Z AUTO 32003KT 7SM SCT032 01/01 A3011 RMK AO2 T00090005
KGEZ 
19nm SE 
161353Z AUTO 32006KT 6SM BR OVC008 04/02 A3010 RMK AO2 CIG 006V009 SLP198 T00390022
TAF
KIND 
7nm SW 
161416Z 1614/1718 33007KT P6SM SCT008 BKN040 TEMPO 1614/1616 BKN008 FM161600 30008KT P6SM SCT250 FM170100 VRB06KT P6SM FEW250
NOTAMs
Click for the latest NOTAMs
NOTAMs are issued by the DoD/FAA and will open in a separate window not controlled by AirNav.

 

 
 

FBO, Fuel Providers, and Aircraft Ground Support

  
 Business Name 
 
 Contact 
 
 Services / Description 
 
Fuel Prices
 
Comments
  
Indianapolis Airport Authority 317-955-1271
no information available

If you are affiliated with Indianapolis Airport Authority and would like to show here your services, contact info, web link, logo, and more, click here
Jet A
SS $3.41 
 Updated 17-Nov-2017
 
   write
SS=Self service
Update Fuel Prices
 

Would you like to see your business listed on this page?

 If your business provides an interesting product or service to pilots, flight crews, aircraft, or users of the Indianapolis Downtown Heliport, you should consider listing it here.  To start the listing process, click on the button below
 
Add a business
 

Other Pages about Indianapolis Downtown Heliport

www.indianapolisairport.com/...
 
Update a link
 
Copyright © AirNav, LLC. All rights reserved. Privacy Policy  Contact